Regional Weather Roundup
Issued by NWS Portland, ME

Home | Current Version | Previous Version | Text Only | Print | Product List | Glossary On
Versions: 1 2 3 4 5 6 7 8 9 10 11 12 13 14 15 16 17 18 19 20 21 22 23 24 25 26 27 28 29 30 31 32 33 34 35 36 37 38 39 40 41 42 43 44 45 46 47 48 49 50
000
ASUS41 KGYX 302310
RWRGYX
WEATHER ROUNDUP FOR MAINE AND NEW HAMPSHIRE
NATIONAL WEATHER SERVICE GRAY ME
700 PM EDT THU OCT 30 2014

MEZ002-005-006-010-012-015-018-020-021-024-026-027-029-310000-
MAINE

CITY           SKY/WX    TMP DP  RH WIND       PRES   REMARKS
PORTLAND       PTCLDY    50  37  61 NW5       29.95R
SANFORD        CLEAR     45  34  65 NW3       29.96R
BAR HARBOR     CLEAR     45  45 100 CALM      29.92R
WISCASSET      CLOUDY    49  37  63 VRB6      29.96R
ROCKLAND       CLOUDY    46  39  76 NW3       29.92R
FRYEBURG       PTCLDY    43  32  65 NW3       29.96R
LEWISTONAUBURN CLEAR     45  34  65 N5        29.95R
AUGUSTA        CLEAR     45  33  63 NW7       29.95R
WATERVILLE     PTCLDY    45  32  61 NW9       29.92R
BANGOR         PTCLDY    46  34  62 W7        29.92R
GREENVILLE       N/A     41  30  65 VRB7      29.90R
MILLINOCKET    CLEAR     45  33  63 W6        29.93R
HOULTON        CLOUDY    46  34  62 N3        29.88R
PRESQUE ISLE   CLOUDY    43  28  56 N5        29.89R
FRENCHVILLE    CLOUDY    39  28  64 NW6       29.89R
CARIBOU        CLOUDY    42  30  62 NW5       29.89R
$$

NHZ002-005-008-009-011-012-014-310000-
NEW HAMPSHIRE

CITY           SKY/WX    TMP DP  RH WIND       PRES   REMARKS
PORTSMOUTH     PTCLDY    48  37  65 W3        29.94R
ROCHESTER      CLEAR     47  36  65 NW8       29.95R
NASHUA         MOCLDY    48  41  77 CALM      29.97R
MANCHESTER     MOCLDY    51  37  58 NW3       29.95R
CONCORD        MOCLDY    45  38  76 CALM      29.96R
LACONIA        CLEAR     45  30  57 CALM      29.94R
PLYMOUTH       MOCLDY    38  38 100 CALM      29.96R
BERLIN         CLOUDY    42  31  64 VRB3      29.97R
WHITEFIELD     PTCLDY    37  33  85 CALM      29.98R
JAFFREY        CLEAR     40  37  89 CALM      29.96R
LEBANON        MOCLDY    43  36  76 CALM      29.96R
MT WASHINGTON  FOG       21  21 100 NW36        N/A  VSB 1/16WCI   2
$$

VTZ005-007-008-310000-
VERMONT

CITY           SKY/WX    TMP DP  RH WIND       PRES   REMARKS
ST JOHNSBURY     N/A     41  33  73 MISG      29.97R
MONTPELIER     CLOUDY    42  33  70 NW3       30.01R
BURLINGTON     MOCLDY    46  32  58 N7        30.01R
$$

MAZ007-012-024-CTZ003-RIZ002-NYZ038-NYZ072-310000-
SOUTHERN NEW ENGLAND AND NY

CITY           SKY/WX    TMP DP  RH WIND       PRES   REMARKS
BOSTON         PTCLDY    53  36  52 NW6       29.96R
WORCESTER      CLEAR     42  34  73 NW7       29.96R
NANTUCKET      CLEAR     52  42  69 W6        29.94R
PROVIDENCE     PTCLDY    51  35  54 W5        29.97R
HARTFORD       PTCLDY    49  35  58 W5        29.97R
ALBANY         PTCLDY    46  35  65 W13       30.01R
NEW YORK CITY  CLEAR     53  37  54 NW14      30.00R
$$

ANZ081-ANZ082-ANZ150-NHZ014-MEZ023>029-310000-
COASTAL MARINE OBSERVATIONS

STATION/POSITION TIME  TEMP    WIND        PRES    WAVE
                       AIR SEA DIR/SP/G            HT/PER
                 (UTC) (F)     (DEG/KT/KT) (MB)    (FT/S)
MOUNT DESERT ROC 2300   53                 1012.8R
MATINICUS ROCK   2300          270/  9/ 10 1012.7R
PORTLAND WX BUOY 2250   53 53  300/  6/ 10 1013.6R   1/ 7
WELLS            2200   52 52  310/  4/  7 1012.9R
ISLE OF SHOALS   2200   53     300/ 12/ 13 1012.9R
JEFFREYS LEDGE   2221      54                N/A     1/ 7
CASHES LEDGE BUO 2250   52 55  260/  4/  4 1013.0R   2/ 8
$$

.............KEY..............
   WCI - WIND CHILL
   TC  - TEMPERATURE IN CELSIUS
   VSB - VISIBILITY IN MILES
   HX  - HEAT INDEX
   FAIR- INDICATES FEW OR NO CLOUDS BELOW 12,000 FT, WITH NO
         SIGNIFICANT WEATHER AND/OR OBSTRUCTIONS TO VISIBILITY.





USA.gov is the U.S. government's official web portal to all federal, state and local government web resources and services.